Regional Weather Roundup
Issued by NWS Memphis, TN

Home | Current Version | Previous Version | Text Only | Print | Product List | Glossary On
Versions: 1 2 3 4 5 6 7 8 9 10 11 12 13 14 15 16 17 18 19 20 21 22 23 24 25 26 27 28 29 30 31 32 33 34 35 36 37 38 39 40 41 42 43 44 45 46 47 48 49 50
000
ASUS44 KMEG 301600
RWRMEG
MEMPHIS CWA HOURLY WEATHER ROUNDUP
NATIONAL WEATHER SERVICE MEMPHIS TN
1100 AM CDT TUE SEP 30 2014

...WEST TENNESSEE...

CITY           SKY/WX    TMP DP  RH WIND       PRES   REMARKS
MEMPHIS INTL   MOSUNNY   81  62  52 VRB3      29.96S
NWS MEMPHIS      N/A     82 N/A N/A MISG        N/A
JACKSON        SUNNY     79  63  57 CALM      29.96S
LEXINGTON      SUNNY     79  63  57 S3        29.96S
SAVANNAH       SUNNY     81  64  57 VRB5      29.96S
DYERSBURG      SUNNY     81  57  44 CALM      29.96F
PARIS          SUNNY     81  52  36 E3        29.97S


...EASTERN ARKANSAS...

CITY           SKY/WX    TMP DP  RH WIND       PRES   REMARKS
JONESBORO      SUNNY     82  55  39 E5        29.95S
WEST MEMPHIS   SUNNY     80  61  52 S5        29.95S
BATESVILLE     SUNNY     81  55  41 E5        29.97S
WALNUT RIDGE   SUNNY     79  57  47 CALM      29.95F
BLYTHEVILLE    SUNNY     82  59  45 S5        29.96S
NW BLYTHEVILLE SUNNY     81  55  41 CALM      29.96R
SEARCY         MOSUNNY   78  58  49 NE3       29.98S
STUTTGART      SUNNY    N/A N/A N/A E5        29.96F
PINE BLUFF     MOSUNNY   81  62  52 VRB6      29.95F
MONTICELLO     SUNNY     81  62  52 E5        29.95F


...NORTH MISSISSIPPI...

CITY           SKY/WX    TMP DP  RH WIND       PRES   REMARKS
TUPELO         SUNNY     79  66  64 S6        29.96S
GREENWOOD      SUNNY     82  68  62 VRB3      29.94S
COLUMBUS       SUNNY     77  67  69 VRB1      29.97S
STARKVILLE     FAIR      79  68  69 E5        29.96S
GOLDEN TRIANGL MOSUNNY   79  66  65 S8        29.96S


...SOUTHEAST MISSOURI...

CITY           SKY/WX    TMP DP  RH WIND       PRES   REMARKS
WEST PLAINS    SUNNY     79  52  38 S9        30.00S
POPLAR BLUFF   SUNNY     80  57  45 VRB3      29.95F
CAPE GIRARDEAU SUNNY     80  55  42 CALM      29.96F


...NORTHWEST ALABAMA...

CITY           SKY/WX    TMP DP  RH WIND       PRES   REMARKS
MUSCLE SHOALS  SUNNY     80  64  58 CALM      29.98S


...MIDDLE TENNESSEE...

CITY           SKY/WX    TMP DP  RH WIND       PRES   REMARKS
NASHVILLE      MOSUNNY   82  59  45 CALM      29.97S
CLARKSVILLE    SUNNY     81  55  40 CALM      29.97S


...WESTERN KENTUCKY...

CITY           SKY/WX    TMP DP  RH WIND       PRES   REMARKS
PADUCAH        SUNNY     80  58  46 CALM      29.96S
FORT CAMPBELL  SUNNY     83  56  40 N7        29.97S


...CENTRAL ARKANSAS...

CITY           SKY/WX    TMP DP  RH WIND       PRES   REMARKS
LITTLE ROCK    MOSUNNY   81  58  45 CALM      29.96F


SKY/WX REPORTED AS FAIR MEANS FEW OR NO CLOUDS BELOW
12 THOUSAND FEET.




USA.gov is the U.S. government's official web portal to all federal, state and local government web resources and services.